Terug naar catalogus

CZ-6A DEB

ActiefPO
NORAD 61330·DEBRIS·🇨🇳 China

Gelanceerd Aug 6, 2024 vanaf Taiyuan Satellite Launch Center

Loading…

Volgende Passages (komende 24 uur)

TLE

VersSource: Space-Track

Epoch: Sep 13, 2026, 10:20 UTC

1 61330U 24140UT  26256.43084541  .00001323  00000-0  31992-3 0  9990
2 61330  88.8511 246.5587 0076873 329.2250  30.4460 14.50734954107217

Volg CZ-6A DEB in realtime met AllMySat

Download on the App Store